Location: North Kessock
(57.5000°N, 4.2500°W)
Time: 09:10:18
(UTC+00:00)

Daily predictions for brighter satellites

Satellite Brightness Start Highest point End
(mag) Time Altitude Azimuth Time Altitude Azimuth Time Altitude Azimuth
Meteor 1-22 Rocket 4.5 21:56:18 10° NNW 22:02:19 82° WSW 22:08:03 10° S
NOSS 2-2 (C) 3.9 22:01:06 10° SSW 22:04:25 34° SE 22:08:17 10° ENE
Cosmos 1553 Rocket 4.4 21:58:44 10° N 22:05:00 58° ENE 22:11:07 10° SSE
ERS-1 Rocket 3.6 22:01:19 10° S 22:06:15 54° W 22:11:13 10° NNW
Cosmos 1953 3.7 22:02:52 10° N 22:06:24 29° ENE 22:09:54 10° SE
NOSS 3-2 (A) 4.4 21:59:29 10° NW 22:06:30 53° SW 22:14:26 10° SSE
Okean 2 3.7 22:03:11 10° S 22:07:14 53° E 22:11:19 10° NNE
Cosmos 1805 3.9 22:03:30 10° NNW 22:07:21 54° W 22:11:11 10° S
STARLINK-1228 4.2 22:04:18 10° W 22:07:23 30° SSW 22:10:30 10° SE
Cosmos 1470 3.2 22:03:52 10° N 22:07:42 51° ENE 22:11:29 10° SSE
Cosmos 2026 Rocket 4.3 22:01:47 10° SSE 22:07:53 54° E 22:14:04 10° NNE
STARLINK-1199 4.0 22:04:33 10° WSW 22:08:31 45° S 22:12:29 10° ESE
Okean 1 Rocket 4.3 22:04:39 10° NNW 22:08:51 40° W 22:13:00 10° SSW
ATLAS 2AS CENTAUR R/B 4.0 22:02:50 10° SSE 22:09:04 26° ESE 22:15:16 10° ENE
STARLINK-1235 4.1 22:07:04 10° WSW 22:09:52 27° SSW 22:12:41 10° SE
STARLINK-1269 4.1 22:07:13 10° WSW 22:11:07 40° SSE 22:15:01 10° E
NOSS 8 (F) 4.1 22:08:10 10° SW 22:11:12 68° SE 22:14:23 10° ENE
Cosmos 968 Rocket 3.5 22:06:46 10° NNW 22:11:59 88° ENE 22:17:08 10° SSE
STARLINK-1210 4.0 22:09:29 10° WSW 22:13:28 45° S 22:17:25 10° ESE
Cosmos 1066 Rocket 4.3 22:08:28 10° SSW 22:13:51 78° WNW 22:19:15 10° NNE
Resurs 01 Rocket 4.2 22:11:54 10° WSW 22:14:29 15° W 22:17:04 10° NW
Cosmos 1455 Rocket 3.1 22:10:13 10° NNW 22:14:36 88° ENE 22:18:57 10° SSE
STARLINK-1200 4.0 22:12:09 10° WSW 22:16:03 41° SSE 22:19:58 10° E
USA 238 DEB 4.5 22:11:37 10° WNW 22:18:21 46° SW 22:25:19 10° SSE
STARLINK-1219 4.0 22:14:28 10° WSW 22:18:25 44° S 22:22:22 10° ESE
USA 238 4.4 22:11:43 10° WNW 22:18:28 46° SW 22:25:27 10° SSE
Cosmos 2278 Rocket 3.4 22:13:50 10° WSW 22:19:20 48° NW 22:24:52 10° NNE
TSX-5 4.1 22:14:39 10° SW 22:19:42 89° NW 22:23:39 10° NE
STARLINK-1192 4.0 22:17:06 10° WSW 22:21:02 42° S 22:24:57 10° E
Cosmos 1758 3.6 22:17:10 10° N 22:21:12 62° ENE 22:25:14 10° SSE
SL-4 R/B 3.1 22:21:15 10° E 22:22:32 14° ENE 22:23:49 10° NNE
Nadezhda 4 Rocket 4.2 22:16:53 10° SSW 22:23:00 73° WNW 22:29:10 10° N
STARLINK-1211 4.0 22:19:26 10° WSW 22:23:23 44° S 22:27:20 10° ESE
STARLINK-1244 4.0 22:22:03 10° WSW 22:25:59 42° S 22:29:55 10° E
SL-4 R/B 3.9 22:23:10 10° S 22:26:09 16° SE 22:29:10 10° ESE
ERBS 2.2 22:24:06 10° WSW 22:27:25 78° S 22:30:45 10° E
STARLINK-1234 4.3 22:24:50 10° WSW 22:27:32 24° SSW 22:30:14 10° SSE
STARLINK-1245 4.0 22:24:24 10° W 22:28:20 43° S 22:32:16 10° ESE
Cosmos 1842 3.3 22:24:51 10° S 22:28:42 65° E 22:32:35 10° NNE
Terra 2.5 22:24:11 10° S 22:28:50 52° W 22:33:31 10° NNW
STARLINK-1138 4.0 22:26:59 10° WSW 22:30:56 43° S 22:34:53 10° E
Cosmos 1110 Rocket 4.1 22:26:07 10° SSW 22:31:19 83° WNW 22:36:32 10° NNE
Cosmos 1503 Rocket 4.1 22:26:47 10° NNW 22:32:07 89° WSW 22:37:29 10° SSE
STARLINK-1233 4.0 22:29:20 10° W 22:33:16 43° S 22:37:12 10° ESE
STARLINK-1209 4.5 22:31:02 10° WSW 22:33:40 22° SSW 22:36:13 10° SSE
STARLINK-1143 3.9 22:31:55 10° WSW 22:35:52 44° S 22:39:50 10° E
STARLINK-1204 4.1 22:34:19 10° W 22:38:14 42° S 22:42:09 10° ESE
SJ 16-02 3.8 22:36:35 10° N 22:39:40 18° NE 22:42:43 10° E
Cosmos 1733 4.4 22:36:33 10° NNW 22:40:06 36° W 22:43:36 10° SSW
Aureole 2 Rocket 3.6 22:37:36 10° WSW 22:40:27 37° NW 22:43:10 10° NNE
STARLINK-1241 3.9 22:36:55 10° WSW 22:40:52 44° S 22:44:50 10° ESE
NOSS 8 (H) 4.1 22:39:21 10° SW 22:42:23 79° SE 22:45:41 10° ENE
STARLINK-1238 4.1 22:39:18 10° W 22:43:13 41° S 22:47:07 10° ESE
STARLINK-1239 3.9 22:41:51 10° WSW 22:45:49 45° S 22:49:47 10° ESE
MTI 3.8 22:44:39 10° NNE 22:47:48 79° WNW 22:50:56 10° SSW
JB-3 4.5 22:43:51 10° NNE 22:48:02 71° ESE 22:52:09 10° S
Cosmos 1331 Rocket 4.3 22:42:54 10° SW 22:48:04 71° WNW 22:53:18 10° NNE
STARLINK-1201 4.1 22:44:15 10° W 22:48:10 40° SSW 22:52:03 10° ESE
Cosmos 1536 Rocket 4.1 22:45:44 10° SSE 22:49:45 43° E 22:53:55 10° NNE
Cosmos 1378 4.3 22:46:37 10° SW 22:50:09 41° WNW 22:53:43 10° N
STARLINK-1240 3.9 22:46:47 10° WSW 22:50:45 45° S 22:54:44 10° ESE
Cosmos 1544 Rocket 3.9 22:47:05 10° NNW 22:51:22 59° W 22:55:38 10° S
Cosmos 1354 Rocket 4.1 22:46:08 10° NNW 22:51:27 74° WSW 22:56:35 11° SSE
STARLINK-1206 4.1 22:49:15 10° W 22:53:08 39° SSW 22:57:00 10° SE
Cosmos 1271 Rocket 3.0 22:49:29 10° S 22:53:16 54° E 22:57:10 10° NNE
Cosmos 1242 Rocket 2.6 22:49:40 10° S 22:53:20 73° ESE 22:57:02 10° NNE
Cosmos 2219 4.2 22:48:55 10° NNW 22:54:22 44° NE 22:59:45 10° ESE
STARLINK-1216 3.9 22:51:44 10° WSW 22:55:42 45° S 22:59:41 10° ESE
STARLINK-1203 3.9 22:51:48 10° WSW 22:55:50 46° S 22:59:52 10° ESE
Meteor 1-21 4.2 22:50:55 10° S 22:56:32 79° ESE 23:02:10 10° NNE
COSMOS 2455 3.9 22:52:50 10° SSE 22:57:42 27° ESE 23:02:39 10° ENE
STARLINK-1205 4.2 22:54:12 10° W 22:58:04 39° SSW 23:01:56 10° SE
Cosmos 1302 Rocket 4.0 22:52:52 10° SSW 22:58:11 86° ESE 23:03:32 10° NNE
Spot 4 3.9 22:53:29 11° SSE 22:58:13 87° WSW 23:03:06 10° NNW
Cosmos 2297 Rocket 3.4 22:53:14 10° NNW 22:58:36 41° NE 23:03:56 10° ESE
SL-27 R/B 4.3 22:56:47 10° NW 22:59:39 22° WSW 23:02:28 10° SSW
STARLINK-1237 3.9 22:56:42 10° WSW 23:00:40 45° S 23:04:39 10° ESE
USA 215 3.4 22:55:14 10° SE 23:01:44 62° SSW 23:08:14 10° WNW
Lacrosse 4 Rocket 3.5 22:58:27 10° NW 23:02:19 29° NNE 23:06:06 10° E
STARLINK-1218 4.2 22:59:11 10° W 23:03:02 38° SSW 23:06:54 10° SE
Cosmos 1707 2.9 22:59:44 11° S 23:03:23 58° E 23:07:13 10° NNE
Cosmos 1726 2.1 23:00:15 10° N 23:04:00 80° ENE 23:07:20 13° SSE
STARLINK-1202 3.9 23:01:39 10° WSW 23:05:38 46° S 23:09:37 10° ESE
Helios 1A 4.0 23:01:56 10° SE 23:05:51 40° ENE 23:09:47 10° N
Timation 2 Rocket 4.1 22:59:41 10° NW 23:06:10 79° NE 23:12:20 10° SE
COSMOS 2487 2.5 23:04:05 10° NNW 23:07:33 70° WSW 23:10:32 13° SSE
STARLINK-1254 4.2 23:04:09 10° W 23:07:59 37° SSW 23:11:49 10° SE
CENTAUR R/B 3.7 23:03:11 10° WNW 23:10:31 44° SW 23:18:17 11° SSE
ALOS 2 2.8 23:07:47 11° SSE 23:11:55 70° ENE 23:16:19 10° NNW
NOSS 2-2 (D) 3.3 23:08:58 10° SW 23:12:41 89° SSE 23:17:18 10° NE
Meteor 1-16 Rocket 4.2 23:07:09 10° NNW 23:12:46 87° E 23:17:49 12° SSE
STARLINK-1231 4.3 23:09:07 10° W 23:12:56 36° SSW 23:16:44 10° SE
Cosmos 1867 4.3 23:08:59 10° WNW 23:14:05 41° SW 23:18:45 12° SSE
ATLAS 3B R/B 2.9 23:07:41 10° NW 23:14:18 61° SW 23:21:08 10° SSE
STARLINK-1246 3.9 23:11:36 10° WSW 23:15:34 45° S 23:19:33 10° ESE
EO 1 Del DPAF 3.2 23:12:08 10° NNE 23:15:56 71° ESE 23:19:29 11° S
Cosmos 1606 Rocket 3.9 23:13:21 10° N 23:17:38 56° ENE 23:21:36 12° SSE
STARLINK-1232 4.3 23:14:06 10° W 23:17:54 35° SSW 23:21:41 10° SE
SeaSat 1 2.9 23:14:58 10° NE 23:19:43 45° ESE 23:24:21 10° S
STARLINK-1224 3.9 23:16:32 10° WSW 23:20:31 45° S 23:24:29 10° ESE
Cosmos 1992 Rocket 4.1 23:16:30 10° SSW 23:21:38 62° ESE 23:26:47 10° NNE
STARLINK-1208 4.3 23:19:04 10° W 23:22:49 34° SSW 23:26:35 10° SE
Cosmos 1943 Rocket 2.4 23:17:21 10° SW 23:22:56 77° NW 23:28:36 10° NE
STARLINK-1225 3.9 23:21:31 10° WSW 23:25:29 45° S 23:29:28 10° ESE
ATLAS CENTAUR R/B 0.4 23:23:48 10° W 23:25:37 52° SSW 23:28:13 10° ESE
Cosmos 1461 4.0 23:21:57 10° WSW 23:26:10 51° NNW 23:30:37 10° NE
STARLINK-1271 4.4 23:24:04 10° W 23:27:48 33° SSW 23:31:32 10° SE
Cosmos 1975 Rocket 4.4 23:23:43 10° SW 23:27:52 38° WNW 23:31:59 10° N
NOSS 2-2 (E) 3.8 23:26:14 10° WSW 23:30:03 70° NNW 23:34:56 10° ENE
Meteor 2-10 4.4 23:25:12 10° NNW 23:30:09 55° W 23:34:44 12° S
STARLINK-1230 3.9 23:26:28 10° WSW 23:30:27 45° S 23:34:24 10° ESE
NOSS 3-4 (A) 3.8 23:24:51 10° SSW 23:30:34 47° SE 23:36:43 10° ENE
NOSS 3-4 (C) 3.8 23:24:57 10° SSW 23:30:40 46° SE 23:36:50 10° ENE
Cosmos 2315 Rocket 4.1 23:24:57 10° NNW 23:31:12 83° ENE 23:36:59 12° SSE
RESURS DK-1 4.0 23:29:48 12° SSE 23:32:20 20° ESE 23:35:23 10° ENE
STARLINK-1154 4.4 23:29:03 10° W 23:32:45 32° SSW 23:36:26 10° SE
Cosmos 292 Rocket 3.9 23:28:06 10° SSW 23:32:58 81° WNW 23:37:53 10° NNE
Cosmos 1340 Rocket 3.3 23:30:39 10° NNW 23:34:38 55° W 23:38:06 13° S
STARLINK-1243 3.9 23:31:27 10° WSW 23:35:25 44° S 23:39:23 10° ESE
Cosmos 2227 Rocket 2.9 23:30:06 10° NNW 23:35:42 54° NE 23:41:17 10° ESE
S3M 4.4 23:30:59 10° NNW 23:36:59 56° W 23:42:52 11° SSW
STARLINK-1197 4.5 23:34:00 10° W 23:37:40 30° SSW 23:41:20 10° SE
Cosmos 1626 4.0 23:36:04 10° SE 23:38:53 21° E 23:41:42 10° NE
Cosmos 1908 3.2 23:35:27 10° NNW 23:39:17 89° W 23:42:29 14° S
ATLAS CENTAUR R/B 2.1 23:35:43 12° SSW 23:39:20 36° SE 23:43:03 10° ENE
Cosmos 2369 Rocket 2.4 23:33:43 10° SW 23:39:23 79° NW 23:45:05 10° NE
STARLINK-1236 3.9 23:36:24 10° WSW 23:40:21 44° S 23:44:19 10° ESE
Thor Agena Rocket 3.8 23:36:44 10° NNE 23:42:04 77° WNW 23:47:21 10° SSW
Aureole 3 3.1 23:38:47 10° NNW 23:42:10 58° W 23:44:31 15° S
Cosmos 1953 3.2 23:39:09 10° NNW 23:42:56 41° W 23:46:22 12° SSW
Cosmos 1025 Rocket 3.4 23:40:02 10° SSW 23:44:16 61° WNW 23:48:35 10° N
STARLINK-1269 3.9 23:46:20 10° W 23:50:17 43° S 23:54:14 10° ESE
SL-4 R/B 2.0 23:50:08 16° SSW 23:51:24 27° W 23:53:20 10° NW
Cosmos 1656 Rocket 3.7 23:46:55 10° SSW 23:52:33 80° ESE 23:58:07 10° NE
Meteor 2-19 Rocket 4.5 23:47:40 11° SSW 23:53:36 89° W 23:59:46 10° NNE
NOSS 2-2 (C) 4.1 23:50:58 10° WSW 23:54:45 60° NNW 23:59:32 10° ENE
APEX 4.2 23:48:57 10° SW 23:55:05 82° NW 23:59:57 10° NE
STARLINK-1200 4.0 23:51:17 10° W 23:55:13 42° S 23:59:08 10° ESE
KORONAS-FOTON 4.0 23:52:25 15° S 23:55:30 61° E 23:59:20 10° NNE
